YAOGAN-31 J

Satellite information

Favourite Embed

Satellite Type and Status

PAYLOADIN ORBIT

Key statistics

Satellite YAOGAN-31 J at a glance.

Uptime

1708

Days in orbit

Revolutions

≈ 13.5

Per day

Orbit

LEO

Low Earth Orbit

Inclination

63.4

Latest

Satellite identification and parameters

Extended collection of information and parameters for YAOGAN-31 J.

Object identification

Identified? True

Debris? False

Object name: YAOGAN-31 J

International designator: 2021-014E

Object number (NORAD): 47695

Object ID (CCSDS): 47695

Country: PEOPLES REPUBLIC OF CHINA (PRC)

Current information (Y/N): Y

RCS size: LARGE

Orbital parameters

Period: 107.03 minutes

Inclination: 63.4029 deg

SMA: 7467.283 km

Apoapsis: 1205.861 km

Periapsis: 972.434 km

RAAN: 72.7183 deg

Eccentricy: 0.01563003

Argument of periapsis: 0.1075 deg

Mean anomaly: 359.9959 deg

Mean motion: 13.4542312 rev/day

Mean motion (dot): -0.00000025 rev/day2

B* drag term: 0.00010184277 1/REarth

Two-line elements (TLE)

Creation date: Oct. 28, 2025, 7:11 p.m.

Reference frame: TEME

Reference center: EARTH

Epoch: Oct. 28, 2025, 3:25 p.m. UTC

TLE line 0: 0 YAOGAN-31 J

TLE line 1: 1 47695U 21014E 25301.64277799 -.00000025 00000-0 10184-3 0 9996

TLE line 2: 2 47695 63.4029 72.7183 0156300 0.1075 359.9959 13.45423120229572

Live tracking on map

Real-time ground track for satellite YAOGAN-31 J.

In-orbit conjunctions

There are no conjunctions computed for YAOGAN-31 J, at the moment. Check back to stay up to date, as we update our databases every day.

Go to all conjunctions

Associated space launch

YAOGAN-31 J was lifted into orbit during the mission ‘Long March 4C | Yaogan-31-03’, on board a Long March 4C space rocket.

The launch took place on Feb. 24, 2021, 2:22 a.m. from Launch Area 4 (SLS-2 / 603).

For more information about the launch, click the button.

Launch to space Long March 4C | Yaogan-31-03
Long March 4C | Yaogan-31-03

Agency: N/A

Status: Launch Successful

Launch date: Feb. 24, 2021, 2:22 a.m. UTC

Rocket: Long March 4C

Launch pad: Launch Area 4 (SLS-2 / 603)

Location: Jiuquan Satellite Launch Center, People's Republic of China

...

Latest news about this satellite

News about space launch
Long March 4C launches latest batch of Yaogan- 31 satellites

Three new satellites were launched from the Jiuquan Satellite Launch Center on Wednesday. The new satellites form part of the Group-3 of the Yaogan Weixing-31 mission. The launch took place at 02:22 UTC from Launch Pad 94 of the LC43 launch complex using ...

News about space launch
Another trio of Chinese military satellites successfully deployed

Weeks after the launch of an earlier trio of Chinese military satellites, another trio of spacecraft successfully took off Feb. 24 aboard a Long March 4C rocket on a clandestine mission that analysts believe may involve spying on foreign naval forces.

News about space launch
China launches trio of Yaogan-31 ocean reconnaissance satellites

A Long March 4C rocket sent a latest series of three Yaogan-31 reconnaissance satellites into orbit late Tuesday.


Newsletter sign-up

Weekly statistics, charts and insights to help you stay on top of the space industry.